FW3322 Weather Reports


Display with metric or nautical units.
time (UTC)temp
F
wind
direction
speed
MPH
gust
MPH
rain 1hr
in
rain 24hr
in
rain mn
in
humidity
%
barometer
mb
20260902000021 99 138 0.0 2.0 0.00 0.00 0.00 47 1013.0
20260901234538 99 205 0.0 5.0 0.00 0.00 0.00 46 1013.0
20260901233014 100 151 1.0 6.0 0.00 0.00 0.00 46 1013.1
20260901231513 100 196 1.0 8.0 0.00 0.00 0.00 45 1013.2
20260901230012 100 132 2.0 7.0 0.00 0.00 0.00 45 1013.2
20260901224511 100 140 4.0 8.0 0.00 0.00 0.00 46 1013.2
20260901223014 101 143 3.0 7.0 0.00 0.00 0.00 45 1013.3
20260901221519 101 146 6.0 10.0 0.00 0.00 0.00 44 1013.3
20260901220010 102 221 3.0 8.0 0.00 0.00 0.00 44 1013.3
20260901214509 101 200 0.0 8.0 0.00 0.00 0.00 44 1013.4
20260901213006 101 148 5.0 10.0 0.00 0.00 0.00 44 1013.4
20260901211510 101 215 5.0 9.0 0.00 0.00 0.00 45 1013.5
20260901210003 101 294 2.0 6.0 0.00 0.00 0.00 45 1013.7
20260901204503 100 251 2.0 9.0 0.00 0.00 0.00 46 1014.0
20260901203108 102 147 5.0 8.0 0.00 0.00 0.00 44 1014.0
20260901201558 101 219 5.0 11.0 0.00 0.00 0.00 45 1014.3
20260901194604 101 223 2.0 10.0 0.00 0.00 0.00 46 1014.6
20260901193053 100 136 3.0 10.0 0.00 0.00 0.00 46 1014.7
20260901191550 100 175 5.0 11.0 0.00 0.00 0.00 47 1014.9
20260901184547 101 202 4.0 9.0 0.00 0.00 0.00 46 1015.2
20260901183048 100 254 2.0 8.0 0.00 0.00 0.00 47 1015.4
20260901181550 99 202 2.0 8.0 0.00 0.00 0.00 48 1015.6
20260901180040 98 180 6.0 11.0 0.00 0.00 0.00 49 1015.9
20260901174538 98 164 5.0 10.0 0.00 0.00 0.00 49 1016.2
20260901173050 97 198 2.0 10.0 0.00 0.00 0.00 51 1016.4
20260901171535 97 194 4.0 7.0 0.00 0.00 0.00 51 1016.6
20260901170029 95 302 2.0 9.0 0.00 0.00 0.00 54 1016.9
20260901164526 94 190 5.0 11.0 0.00 0.00 0.00 55 1017.0
20260901163023 93 234 3.0 10.0 0.00 0.00 0.00 57 1017.1
20260901161520 92 232 3.0 11.0 0.00 0.00 0.00 58 1017.2
20260901160017 91 298 5.0 9.0 0.00 0.00 0.00 59 1017.2
20260901154513 91 230 4.0 9.0 0.00 0.00 0.00 60 1017.2
20260901153015 89 284 3.0 9.0 0.00 0.00 0.00 60 1017.2
20260901151509 89 159 5.0 10.0 0.00 0.00 0.00 61 1017.1
20260901150006 88 216 2.0 6.0 0.00 0.00 0.00 63 1017.2
20260901144506 87 133 0.0 4.0 0.00 0.00 0.00 65 1017.3
20260901143058 85 279 1.0 8.0 0.00 0.00 0.00 66 1017.4
20260901141604 84 240 1.0 4.0 0.00 0.00 0.00 66 1017.5
20260901140053 83 209 0.0 2.0 0.00 0.00 0.00 67 1017.4
20260901134547 82 153 1.0 6.0 0.00 0.00 0.00 68 1017.4
20260901133046 80 150 1.0 5.0 0.00 0.00 0.00 70 1017.4
20260901131541 80 150 0.0 2.0 0.00 0.00 0.00 71 1017.3
20260901130039 79 137 0.0 2.0 0.00 0.00 0.00 71 1017.2
20260901124543 0 0.0 0.0 0.00 0.00 0.00 1017.1
20260901123034 0 0.0 0.0 0.00 0.00 0.00 1017.0
20260901121527 0 0.0 0.0 0.00 0.00 0.00 1016.9
20260901120023 0 0.0 0.0 0.00 0.00 0.00 1016.7
20260901114519 0 0.0 0.0 0.00 0.00 0.00 1016.6
20260901113015 0 0.0 0.0 0.00 0.00 0.00 1016.4
20260901111510 0 0.0 0.0 0.00 0.00 0.00 1016.2
20260901110007 0 0.0 0.0 0.00 0.00 0.00 1016.0
20260901104503 0 0.0 0.0 0.00 0.00 0.00 1016.0
20260901103123 73 136 1.0 3.0 0.00 0.00 0.00 79 1015.8
20260901101601 73 132 1.0 2.0 0.00 0.00 0.00 79 1015.7
20260901100058 73 136 2.0 3.0 0.00 0.00 0.00 79 1015.7
20260901094555 73 133 2.0 4.0 0.00 0.00 0.00 79 1015.6
20260901093124 73 131 2.0 2.0 0.00 0.00 0.00 79 1015.6
20260901091604 73 128 1.0 2.0 0.00 0.00 0.00 80 1015.5
20260901090051 73 128 0.0 1.0 0.00 0.00 0.00 80 1015.4
20260901084551 73 277 0.0 0.0 0.00 0.00 0.00 80 1015.3
20260901083051 74 279 0.0 0.0 0.00 0.00 0.00 79 1015.3
20260901081550 75 279 0.0 0.0 0.00 0.00 0.00 76 1015.3
20260901080050 75 279 0.0 0.0 0.00 0.00 0.00 74 1015.2
20260901074548 74 182 0.0 0.0 0.00 0.00 0.00 77 1015.1
20260901073047 74 112 0.0 0.0 0.00 0.00 0.00 80 1015.1
20260901071548 73 111 0.0 0.0 0.00 0.00 0.00 82 1015.1
20260901070055 73 107 0.0 0.0 0.00 0.00 0.00 83 1015.2
20260901064544 74 107 0.0 0.0 0.00 0.00 0.00 81 1015.3
20260901063043 74 107 0.0 0.0 0.00 0.00 0.00 82 1015.4
20260901061542 75 123 0.0 0.0 0.00 0.00 0.00 78 1015.4
20260901060041 75 123 0.0 0.0 0.00 0.00 0.00 76 1015.4
20260901054539 75 123 0.0 0.0 0.00 0.00 0.00 76 1015.3
20260901053038 76 123 0.0 0.0 0.00 0.00 0.00 76 1015.1
20260901051537 75 123 0.0 0.0 0.00 0.00 0.00 77 1015.2
20260901050033 75 173 0.0 0.0 0.00 0.00 0.00 79 1015.1
20260901044530 75 111 1.0 4.0 0.00 0.00 0.00 81 1014.9
20260901043030 76 207 0.0 0.0 0.00 0.00 0.00 79 1014.7
20260901041529 76 207 0.0 0.0 0.00 0.00 0.00 78 1014.6
20260901040030 77 207 0.0 0.0 0.00 0.00 0.00 77 1014.7
20260901034528 77 207 0.0 0.0 0.00 0.00 0.00 76 1014.7
20260901033043 77 207 0.0 0.0 0.00 0.00 0.00 76 1014.6
20260901031527 78 207 0.0 0.0 0.00 0.00 0.00 73 1014.5
20260901030027 79 207 0.0 0.0 0.00 0.00 0.00 71 1014.4
20260901024528 80 207 0.0 0.0 0.00 0.00 0.00 69 1014.3
20260901023029 81 207 0.0 0.0 0.00 0.00 0.00 67 1014.2
20260901021526 82 207 0.0 0.0 0.00 0.00 0.00 66 1014.1
20260901020024 83 207 0.0 0.0 0.00 0.00 0.00 64 1014.0
20260901014525 84 207 0.0 0.0 0.00 0.00 0.00 63 1013.7
20260901013023 86 207 0.0 0.0 0.00 0.00 0.00 61 1013.5
20260901011523 88 229 0.0 0.0 0.00 0.00 0.00 58 1013.4
20260901010022 91 229 0.0 0.0 0.00 0.00 0.00 53 1013.3
20260901004521 93 229 0.0 0.0 0.00 0.00 0.00 50 1013.2
20260901003021 94 219 0.0 1.0 0.00 0.00 0.00 48 1013.2
20260901001528 96 229 0.0 6.0 0.00 0.00 0.00 45 1013.2